Location: Unspecified
(17.6330°N, 0.0000°E)
Time: 18:28:19
(UTC+00:00)

A-11 Canister half - Pass Details

Date: 17 June 2019
Orbit: 1514 x 1686 km, 47.2° (Epoch: 19 August)

Event Time Altitude Azimuth Distance (km) Brightness Sun altitude
Rises 17:38:00 0° 328° (NNW) 4,711 12.5 12.0°
Reaches altitude 10° 17:41:49 10° 341° (NNW) 3,705 11.7 11.1°
Maximum altitude 17:49:17 26° 35° (NE) 2,620 10.2 9.5°
Drops below altitude 10° 17:56:39 10° 89° (E) 3,666 10.5 7.9°
Sets 18:00:22 0° 101° (E) 4,651 10.9 7.0°
